Regional Weather Roundup
Issued by NWS

Home | Current Version | Previous Version | Text Only | Print | Product List | Glossary Off
Versions: 1 2 3 4 5 6 7 8 9 10 11 12 13 14 15 16 17 18 19 20 21 22 23 24 25 26 27 28 29 30 31 32 33 34 35 36 37 38 39 40 41 42 43 44 45 46 47 48 49 50

000
ASUS43 KLMK 222002
RWRKY
KENTUCKY REGIONAL WEATHER ROUNDUP
NATIONAL WEATHER SERVICE LOUISVILLE KY
400 PM EDT THU JUN 22 2017

NOTE "FAIR" INDICATES FEW OR NO CLOUDS BELOW 12,000 FEET
WITH NO SIGNIFICANT WEATHER AND/OR OBSTRUCTIONS TO VISIBILITY.

KYZ001>023-026-027-061>063-070>075-222100-
WESTERN AND SOUTH CENTRAL KENTUCKY

CITY           SKY/WX    TMP DP  RH WIND       PRES   REMARKS
PADUCAH        CLOUDY    79  73  82 SE8       29.82F
HENDERSON      LGT RAIN  74  72  93 SE8       29.88F
OWENSBORO      LGT RAIN  73  71  93 SE15G23   29.90F FOG
HOPKINSVILLE   LGT RAIN  74  74 100 SE7       29.88F FOG
BOWLING GREEN  CLOUDY    76  73  91 SE9       29.92F
GLASGOW        NOT AVBL
$$

KYZ024-025-028>034-038-045-046-053-222100-
NORTH CENTRAL KENTUCKY

CITY           SKY/WX    TMP DP  RH WIND       PRES   REMARKS
LOUISVILLE/SDF RAIN      74  71  91 S13       29.95F FOG
LOUISVILLE/LOU LGT RAIN  75  73  93 SE6       29.96F
FORT KNOX      LGT RAIN  72  72 100 SE8       29.94F
$$

KYZ035>037-039>044-047>052-055>060-089>105-222100-
NORTHEAST KENTUCKY

CITY           SKY/WX    TMP DP  RH WIND       PRES   REMARKS
LEXINGTON      LGT RAIN  73  68  84 SE9       30.01F
COVINGTON      CLOUDY    79  68  69 S16G26    29.97F
FRANKFORT      LGT RAIN  73  69  87 SE8       29.99F
$$

KYZ054-064>069-076>088-106>120-222100-
SOUTHEAST KENTUCKY

CITY           SKY/WX    TMP DP  RH WIND       PRES   REMARKS
JACKSON        LGT RAIN  70  69  97 CALM      30.07F
LONDON         LGT RAIN  73  69  87 SE8       30.04F
SOMERSET       RAIN      72  72 100 SE6       30.03F
MIDDLESBORO    LGT RAIN  73  71  92 E3        30.07F
MONTICELLO     RAIN      72  69  90 SE8       30.03F FOG
$$





USA.gov is the U.S. government's official web portal to all federal, state and local government web resources and services.